map of LIL home
Great Circle Mapper logo
LIL - Airport
Location
City:  Lille, France
Name:Lesquin
ICAO / IATA:LFQQ / LIL

Details
Type:Airport (Aerodrome, Airfield)
Use:Public/Civil, International (customs port of entry)
Latitude:5033'48"N (50.563333)
Longitude:305'13"E (3.086944)
Elevation:157 ft (48 m)
Variation:0.3E (WMM2015 magnetic declination)
Runways:2
Longest:9268 × 148 ft (2825 × 45 m)

Time
Time Zone:UTC+1 (DST+2)
Local Time:

Weather
METAR:LFQQ 181900Z 22014KT 9999 BKN010 12/11 Q1015 NOSIG
TAF:LFQQ 181700Z 1818/1924 25020G30KT 9999 OVC012
TEMPO 1818/1911 4000 DZRA OVC007
BECMG 1910/1912 31013KT SCT030
BECMG 1915/1918 25015KT

Related Locations
Nearby:
Farthest:CHT: 11963 mi / 19252 km
Waitangi [Tuuta], Chatham Islands, NZ

Find:

   beyond  
but within

Other Information
Maps:
NOTAMs:
Links:
Sources:

  
flag of France   

Sectional Chart

Flight Planning
at skyvector.com

Satellite Image

Google Maps Satellite View

 

Copyright © 2004-2014 Karl L. Swartz. All rights reserved.
The Great Circle Mapper name and logo are trademarks of the Great Circle Mapper.
All other trademarks mentioned herein belong to their respective owners.
Please see credits for attibutions and further copyright information.

  Follow gcmap on Facebook Follow gcmap on Twitter

hCard Microformat

Geo Microformat